Weather History for Barnwell, SC

Change the Weather History Date:

Tuesday, July 30, 2013

  Actual Average (KOGB) Record (KOGB)
Temperature  
Mean Temperature 81 °F 82 °F  
Max Temperature 91 °F 92 °F 100 °F (1981)
Min Temperature 71 °F 72 °F 61 °F (1983)
Degree Days  
Heating Degree Days 0 0  
Month to date heating degree days 0  
Since 1 June heating degree days 1  
Since 1 July heating degree days 0  
Cooling Degree Days 16 17  
Month to date cooling degree days 503  
Year to date cooling degree days 1204  
Since 1 June cooling degree days 901  
Growing Degree Days 31 (Base 50)    
Moisture  
Dew Point 73 °F    
Average Humidity 81    
Maximum Humidity 100    
Minimum Humidity 49    
Precipitation  
Precipitation 0.00 in 0.14 in 1.35 in (1958)
Month to date precipitation 5.15  
Year to date precipitation 27.89  
Sea Level Pressure  
Sea Level Pressure 30.15 in    
Wind  
Wind Speed 1 mph (ENE)    
Max Wind Speed 8 mph    
Max Gust Speed -    
Visibility 8 miles    
Events Fog    
T = Trace of Precipitation, MM = Missing Value Source: NWS Daily Summary

Daily Weather History Graph

Daily Weather History Graph

Search for Another Location

Airport:

Trip Planner

Search our weather history database for the weather conditions in past years. The results will help you decide how hot, cold, wet, or windy it might be!

Date:

Astronomy

Jul. 30, 2013 Rise Set
Actual Time 6:37 AM EDT 8:26 PM EDT
Civil Twilight 6:10 AM EDT 8:53 PM EDT
Nautical Twilight 5:37 AM EDT 9:26 PM EDT
Astronomical Twilight 5:02 AM EDT 10:00 PM EDT
Moon 12:51 AM EDT (7/30) 2:46 PM EDT (7/30)
Length of Visible Light 14h 43m
Length of Day
13h 49m
Last Quarter, 41% of the Moon is Illuminated
Jul 30
Last Quarter
Aug 6
New
Aug 14
First Quarter
Aug 20
Full
Aug 28
Last Quarter

Hourly Weather History & Observations

Time (EDT) Temp. Heat Index Dew Point Humidity Pressure Visibility Wind Dir Wind Speed Gust Speed Precip Events Conditions
12:15 AM 75.2 °F - 73.4 °F 94% 30.15 in 10.0 mi Calm Calm - N/A   Clear
12:35 AM 73.4 °F - 73.4 °F 100% 30.16 in 10.0 mi Calm Calm - N/A   Clear
12:55 AM 73.4 °F - 71.6 °F 94% 30.16 in 10.0 mi Calm Calm - N/A   Clear
1:15 AM 73.4 °F - 71.6 °F 94% 30.15 in 7.0 mi Calm Calm - N/A   Clear
1:35 AM 73.4 °F - 71.6 °F 94% 30.15 in 3.0 mi Calm Calm - N/A   Clear
1:55 AM 73.4 °F - 71.6 °F 94% 30.15 in 5.0 mi Calm Calm - N/A   Clear
2:15 AM 73.4 °F - 71.6 °F 94% 30.15 in 5.0 mi Calm Calm - N/A   Clear
2:35 AM 73.4 °F - 71.6 °F 94% 30.15 in 5.0 mi Calm Calm - N/A   Clear
2:55 AM 73.4 °F - 71.6 °F 94% 30.15 in 5.0 mi Calm Calm - N/A   Clear
3:15 AM 71.6 °F - 71.6 °F 100% 30.15 in 4.0 mi Calm Calm - N/A   Clear
3:35 AM 71.6 °F - 71.6 °F 100% 30.15 in 5.0 mi Calm Calm - N/A   Clear
3:55 AM 71.6 °F - 71.6 °F 100% 30.14 in 5.0 mi Calm Calm - N/A   Clear
4:15 AM 71.6 °F - 71.6 °F 100% 30.14 in 5.0 mi Calm Calm - N/A   Clear
4:35 AM 71.6 °F - 71.6 °F 100% 30.14 in 5.0 mi Calm Calm - N/A   Clear
4:55 AM 71.6 °F - 71.6 °F 100% 30.13 in 4.0 mi Calm Calm - N/A   Clear
5:15 AM 71.6 °F - 69.8 °F 94% 30.13 in 6.0 mi Calm Calm - N/A   Clear
5:35 AM 71.6 °F - 69.8 °F 94% 30.14 in 5.0 mi Calm Calm - N/A   Clear
5:55 AM 71.6 °F - 71.6 °F 100% 30.14 in 5.0 mi Calm Calm - N/A   Clear
6:15 AM 71.6 °F - 69.8 °F 94% 30.15 in 1.8 mi Calm Calm - N/A   Overcast
6:35 AM 71.6 °F - 69.8 °F 94% 30.16 in 3.0 mi Calm Calm - N/A   Overcast
6:55 AM 71.6 °F - 69.8 °F 94% 30.17 in 3.0 mi Calm Calm - N/A   Overcast
7:15 AM 71.6 °F - 71.6 °F 100% 30.18 in 0.5 mi Calm Calm - N/A Fog Fog
7:35 AM 71.6 °F - 71.6 °F 100% 30.19 in 0.2 mi Calm Calm - N/A Fog Fog
7:55 AM 71.6 °F - 71.6 °F 100% 30.19 in 0.2 mi Calm Calm - N/A Fog Fog
8:15 AM 71.6 °F - 71.6 °F 100% 30.19 in 0.2 mi Calm Calm - N/A Fog Fog
8:35 AM 73.4 °F - 71.6 °F 94% 30.20 in 0.8 mi Calm Calm - N/A   Overcast
8:55 AM 73.4 °F - 73.4 °F 100% 30.20 in 2.0 mi Calm Calm - N/A   Overcast
9:15 AM 73.4 °F - 73.4 °F 100% 30.20 in 3.0 mi Calm Calm - N/A   Overcast
9:35 AM 73.4 °F - 73.4 °F 100% 30.20 in 7.0 mi Calm Calm - N/A   Overcast
9:55 AM 75.2 °F - 73.4 °F 94% 30.20 in 10.0 mi Calm Calm - N/A   Overcast
10:15 AM 78.8 °F - 73.4 °F 83% 30.20 in 10.0 mi Calm Calm - N/A   Overcast
10:35 AM 78.8 °F - 73.4 °F 83% 30.20 in 10.0 mi Calm Calm - N/A   Mostly Cloudy
10:55 AM 80.6 °F 85.4 °F 73.4 °F 79% 30.19 in 10.0 mi Calm Calm - N/A   Partly Cloudy
11:15 AM 80.6 °F 85.4 °F 73.4 °F 79% 30.19 in 10.0 mi Calm Calm - N/A   Clear
11:35 AM 82.4 °F 88.2 °F 73.4 °F 74% 30.19 in 10.0 mi Calm Calm - N/A   Clear
11:55 AM 84.2 °F 90.9 °F 73.4 °F 70% 30.19 in 10.0 mi Calm Calm - N/A   Clear
12:15 PM 84.2 °F 90.9 °F 73.4 °F 70% 30.19 in 10.0 mi Calm Calm - N/A   Partly Cloudy
12:55 PM 87.8 °F 95.6 °F 73.4 °F 62% 30.18 in 10.0 mi East 5.8 mph - N/A   Clear
1:15 PM 87.8 °F 95.6 °F 73.4 °F 62% 30.17 in 10.0 mi Calm Calm - N/A   Clear
1:35 PM 87.8 °F 95.6 °F 73.4 °F 62% 30.17 in 10.0 mi Calm Calm - N/A   Scattered Clouds
1:55 PM 87.8 °F 95.6 °F 73.4 °F 62% 30.17 in 10.0 mi NE 3.5 mph - N/A   Mostly Cloudy
2:15 PM 89.6 °F 96.2 °F 71.6 °F 55% 30.16 in 10.0 mi East 6.9 mph - N/A   Mostly Cloudy
2:35 PM 87.8 °F 93.8 °F 71.6 °F 58% 30.15 in 10.0 mi East 3.5 mph - N/A   Partly Cloudy
2:55 PM 89.6 °F 96.2 °F 71.6 °F 55% 30.15 in 10.0 mi SSE 4.6 mph - N/A   Partly Cloudy
3:15 PM 89.6 °F 96.2 °F 71.6 °F 55% 30.14 in 10.0 mi SSE 4.6 mph - N/A   Partly Cloudy
3:35 PM 89.6 °F 96.2 °F 71.6 °F 55% 30.14 in 10.0 mi Calm Calm - N/A   Scattered Clouds
3:55 PM 91.4 °F 96.8 °F 69.8 °F 49% 30.14 in 10.0 mi NE 3.5 mph - N/A   Mostly Cloudy
4:15 PM 87.8 °F 93.8 °F 71.6 °F 58% 30.13 in 10.0 mi ENE 4.6 mph - N/A   Mostly Cloudy
4:35 PM 89.6 °F 96.2 °F 71.6 °F 55% 30.13 in 10.0 mi ENE 4.6 mph - N/A   Scattered Clouds
4:55 PM 89.6 °F 96.2 °F 71.6 °F 55% 30.12 in 10.0 mi NE 4.6 mph - N/A   Clear
5:15 PM 89.6 °F 96.2 °F 71.6 °F 55% 30.12 in 10.0 mi ENE 4.6 mph - N/A   Clear
5:35 PM 89.6 °F 98.2 °F 73.4 °F 59% 30.12 in 10.0 mi East 8.1 mph - N/A   Scattered Clouds
5:55 PM 87.8 °F 95.6 °F 73.4 °F 62% 30.12 in 10.0 mi NE 6.9 mph - N/A   Scattered Clouds
6:15 PM 89.6 °F 98.2 °F 73.4 °F 59% 30.12 in 10.0 mi ENE 6.9 mph - N/A   Clear
6:35 PM 87.8 °F 95.6 °F 73.4 °F 62% 30.12 in 10.0 mi ENE 4.6 mph - N/A   Clear
6:55 PM 87.8 °F 95.6 °F 73.4 °F 62% 30.12 in 10.0 mi ENE 6.9 mph - N/A   Clear
7:15 PM 86.0 °F 93.4 °F 73.4 °F 66% 30.12 in 10.0 mi ENE 4.6 mph - N/A   Clear
7:35 PM 84.2 °F 90.9 °F 73.4 °F 70% 30.13 in 10.0 mi ENE 3.5 mph - N/A   Clear
7:55 PM 84.2 °F 90.9 °F 73.4 °F 70% 30.13 in 10.0 mi Calm Calm - N/A   Clear
8:15 PM 82.4 °F 88.2 °F 73.4 °F 74% 30.13 in 10.0 mi Calm Calm - N/A   Clear
8:35 PM 82.4 °F 88.2 °F 73.4 °F 74% 30.13 in 10.0 mi Calm Calm - N/A   Clear
8:55 PM 80.6 °F 86.2 °F 75.2 °F 84% 30.14 in 10.0 mi Calm Calm - N/A   Clear
9:15 PM 80.6 °F 86.2 °F 75.2 °F 84% 30.14 in 10.0 mi Calm Calm - N/A   Clear
9:35 PM 78.8 °F - 75.2 °F 89% 30.14 in 10.0 mi Calm Calm - N/A   Clear
9:55 PM 78.8 °F - 75.2 °F 89% 30.14 in 10.0 mi Calm Calm - N/A   Clear
10:15 PM 78.8 °F - 75.2 °F 89% 30.14 in 10.0 mi Calm Calm - N/A   Clear
10:35 PM 78.8 °F - 73.4 °F 83% 30.15 in 10.0 mi Calm Calm - N/A   Clear
10:55 PM 78.8 °F - 73.4 °F 83% 30.15 in 10.0 mi Calm Calm - N/A   Clear
11:15 PM 77.0 °F - 73.4 °F 89% 30.15 in 10.0 mi Calm Calm - N/A   Clear
11:35 PM 77.0 °F - 73.4 °F 89% 30.15 in 10.0 mi Calm Calm - N/A   Clear
11:55 PM 77.0 °F - 73.4 °F 89% 30.15 in 10.0 mi Calm Calm - N/A   Clear